Location: ??
(34.7707°N, 135.6540°E)
Time: 07:21:29
(UTC+00:00)

Meteor 1-4 Rocket - Pass Details

Date: 09 April 2020
Orbit: 449 x 503 km, 81.2° (Epoch: 25 May)

Event Time Altitude Azimuth Distance (km) Brightness Sun altitude
Exits shadow 18:29:40 54° 27° (NNE) 615 3.2 -24.4°
Drops below altitude 10° 18:32:41 10° 12° (NNE) 1,715 5.8 -23.9°
Sets 18:34:48 0° 10° (N) 2,599 6.8 -23.5°
